Home > Weather > Verden (Aller) > Past weeks

Flag for Germany Weather for the Past 2 Weeks in Verden (Aller), Lower Saxony, Germany

Now
50 °F

Passing clouds.


Feels Like: 48 °F
Forecast: 39 / 66 °F
Wind: 5 mph from Northwest

Location: Bremen Airport

Current Time: May 1, 2016 at 10:00:29 PM

Latest Report: May 1, 2016 at 9:20 PM


Visibility: N/A

Pressure: 30.33 "Hg

Humidity: 76%

Dew Point: 43 °F

Location of Verden (Aller)Location

Historic Weather in Verden (Aller) — Graph

°F

Verden (Aller) Temperature Yesterday

Maximum temperature yesterday: 52 °F (at 6:20 PM)
Minimum temperature yesterday: 43 °F (at 3:20 AM)
Average temperature yesterday: 46 °F

High & Low Weather Summary for the Past Weeks

 TemperatureHumidityPressure
High57 °F (Apr 21, 2:50 PM)100% (Apr 17, 4:20 AM)30.45 "Hg (Apr 17, 4:20 AM)
Low28 °F (Apr 25, 2:20 AM)41% (Apr 21, 2:20 PM)29.36 "Hg (Apr 26, 12:20 PM)
Average43 °F77%29.96 "Hg
* Reported Apr 16 8:20 PM — May 1 8:50 PM, Verden (Aller), Weather by CustomWeather, © 2016

Note: Actual official high and low records may vary slightly from our data, if they occured in-between our weather recording intervals... More about our weather records

Advertising

Verden (Aller) Weather History for the Previous 24 Hours

Scroll right to see more
 ConditionsComfort  
Time TempWeatherWind HumidityBarometerVisibility
8:50 PM
Sun, May 1
50 °FSunny.7 mph76%30.33 "Hg10 mi
8:20 PM54 °FPassing clouds.7 mph67%30.33 "HgN/A
7:50 PM55 °FPassing clouds.9 mph59%30.33 "HgN/A
7:20 PM55 °FPassing clouds.10 mph59%30.30 "HgN/A
6:50 PM57 °FPassing clouds.10 mph55%30.30 "HgN/A
6:20 PM57 °FPassing clouds.10 mph55%30.30 "HgN/A
5:50 PM57 °FScattered clouds.9 mph55%30.30 "HgN/A
5:20 PM57 °FScattered clouds.10 mph55%30.30 "HgN/A
4:50 PM57 °FPassing clouds.10 mph51%30.30 "HgN/A
4:20 PM57 °FPassing clouds.10 mph55%30.30 "HgN/A
3:50 PM57 °FPassing clouds.9 mph55%30.30 "HgN/A
3:20 PM57 °FPassing clouds.8 mph51%30.30 "HgN/A
2:50 PM55 °FPassing clouds.13 mph51%30.30 "HgN/A
2:20 PM54 °FScattered clouds.8 mph54%30.33 "HgN/A
1:50 PM52 °FScattered clouds.9 mph54%30.33 "HgN/A
1:20 PM52 °FPartly sunny.10 mph58%30.33 "HgN/A
12:50 PM50 °FPartly sunny.8 mph67%30.33 "HgN/A
12:20 PM50 °FPartly sunny.9 mph67%30.33 "HgN/A
11:50 AM48 °FPartly sunny.10 mph71%30.33 "HgN/A
11:20 AM48 °FPartly sunny.10 mph71%30.33 "HgN/A
10:20 AM46 °FBroken clouds.9 mph71%30.33 "HgN/A
9:50 AM45 °FBroken clouds.8 mph76%30.33 "HgN/A
8:50 AM43 °FPassing clouds.9 mph81%30.30 "HgN/A
8:20 AM43 °FSunny.9 mph81%30.30 "Hg10 mi
7:50 AM43 °FSunny.10 mph81%30.30 "Hg10 mi
7:20 AM43 °FSunny.10 mph81%30.30 "Hg10 mi
6:20 AM41 °FClear.9 mph87%30.27 "Hg10 mi
5:50 AM41 °FClear.9 mph87%30.27 "Hg10 mi
5:20 AM41 °FClear.9 mph87%30.27 "Hg10 mi
4:20 AM41 °FClear.7 mph87%30.27 "Hg10 mi
3:50 AM41 °FClear.8 mph87%30.27 "Hg10 mi
3:20 AM41 °FClear.7 mph87%30.27 "Hg10 mi
2:50 AM43 °FClear.9 mph81%30.24 "Hg10 mi
2:20 AM43 °FClear.9 mph81%30.24 "Hg10 mi
1:50 AM43 °FClear.8 mph81%30.24 "Hg10 mi
1:20 AM43 °FClear.9 mph81%30.24 "Hg10 mi
12:50 AM43 °FClear.9 mph81%30.24 "Hg10 mi
12:20 AM45 °FClear.9 mph76%30.21 "Hg10 mi
11:50 PM
Sat, Apr 30
45 °FClear.10 mph76%30.21 "Hg10 mi
11:20 PM45 °FClear.8 mph76%30.21 "Hg10 mi
10:50 PM46 °FClear.6 mph76%30.21 "Hg10 mi
10:20 PM46 °FPassing clouds.6 mph82%30.21 "HgN/A
Weather by CustomWeather, © 2016

See weather overviewHow to use our weather pages